Cocoa Beach, FL

2:24 PM EDT on April 20, 2018 (GMT -0400)
Patrick Air Force Base

Weather History for KCOF - September, 2013

Change the Weather History Date:

Sunday, September 1, 2013

  Actual Average Record
Temperature  
Mean Temperature 82 °F -  
Max Temperature 89 °F 85 °F 93 °F (2006)
Min Temperature 76 °F 75 °F 73 °F (1997)
Cooling Degree Days 17    
Growing Degree Days 32 (Base 50)    
Moisture  
Dew Point 71 °F    
Average Humidity 72    
Maximum Humidity 85    
Minimum Humidity 55    
Precipitation  
Precipitation 0.02 in - - ()
Sea Level Pressure  
Sea Level Pressure 29.99 in    
Wind  
Wind Speed 8 mph (SSW)    
Max Wind Speed 18 mph    
Max Gust Speed -    
Visibility 10 miles    
Events Rain , Thunderstorm    
Averages and records for this station are not official NWS values.
T = Trace of Precipitation, MM = Missing Value Source: NWS Daily Summary

Daily Weather History Graph

Daily Weather History Graph

Search for Another Location

Airport or City:

Astronomy

Sep. 01, 2013 Rise Set
Actual Time 7:00 AM EDT 7:43 PM EDT
Civil Twilight 6:37 AM EDT 8:07 PM EDT
Nautical Twilight 6:08 AM EDT 8:35 PM EDT
Astronomical Twilight 5:40 AM EDT 9:03 PM EDT
Moon 3:33 AM EDT (9/1) 5:09 PM EDT (9/1)
Length of Visible Light 13h 30m
Length of Day
12h 42m
Waning Crescent, 14% of the Moon is Illuminated
Sep 1
Waning Crescent
Sep 5
New
Sep 12
First Quarter
Sep 19
Full
Sep 26
Last Quarter

Hourly Weather History & Observations

Time (EDT) Temp. Heat Index Dew Point Humidity Pressure Visibility Wind Dir Wind Speed Gust Speed Precip Events Conditions
12:58 AM 76.8 °F - 68.9 °F 76% 29.99 in 10.0 mi WSW 5.8 mph - N/A   Clear
1:58 AM 76.6 °F - 69.4 °F 78% 29.98 in 10.0 mi SSW 2.3 mph - N/A   Partly Cloudy
2:58 AM 76.8 °F - 69.3 °F 77% 29.98 in 10.0 mi SSW 6.9 mph - N/A   Partly Cloudy
3:58 AM 76.8 °F - 70.0 °F 79% 29.96 in 10.0 mi South 4.6 mph - N/A   Clear
4:58 AM 77.5 °F - 71.4 °F 81% 29.96 in 10.0 mi SW 5.8 mph - N/A   Clear
5:58 AM 76.5 °F - 71.4 °F 84% 29.98 in 10.0 mi SSW 6.9 mph - N/A   Clear
6:58 AM 76.1 °F - 71.4 °F 85% 29.99 in 10.0 mi SSW 4.6 mph - N/A   Clear
7:58 AM 76.8 °F - 72.1 °F 85% 30.01 in 10.0 mi SSW 4.6 mph - N/A   Clear
8:58 AM 79.3 °F - 72.1 °F 79% 30.01 in 10.0 mi WSW 6.9 mph - N/A   Clear
9:58 AM 83.3 °F 88.4 °F 71.8 °F 68% 30.01 in 10.0 mi SW 6.9 mph - N/A   Clear
10:58 AM 86.2 °F 92.2 °F 71.6 °F 62% 30.01 in 10.0 mi West 4.6 mph - N/A   Clear
11:58 AM 88.0 °F 92.9 °F 70.2 °F 55% 30.03 in 10.0 mi Variable 3.5 mph - N/A   Clear
12:58 PM 86.9 °F 94.5 °F 73.4 °F 64% 30.01 in 10.0 mi East 9.2 mph - N/A   Clear
1:58 PM 88.0 °F 96.5 °F 73.8 °F 63% 29.99 in 10.0 mi East 9.2 mph - N/A   Clear
2:06 PM 87.8 °F 95.6 °F 73.4 °F 62% 29.98 in 10.0 mi ESE 11.5 mph - N/A   Light Drizzle
2:07 PM 87.8 °F 95.6 °F 73.4 °F 62% 29.98 in 10.0 mi East 10.4 mph - N/A   Clear
2:09 PM 87.8 °F 95.6 °F 73.4 °F 62% 29.98 in 10.0 mi East 10.4 mph - N/A   Light Drizzle
2:16 PM 87.8 °F 95.6 °F 73.4 °F 62% 29.98 in 10.0 mi East 10.4 mph - N/A   Clear
2:58 PM 88.2 °F 96.0 °F 73.2 °F 61% 29.98 in 10.0 mi ESE 12.7 mph - 0.00 in   Clear
3:58 PM 88.5 °F 95.3 °F 72.1 °F 58% 29.96 in 10.0 mi SE 15.0 mph - N/A   Clear
4:58 PM 86.0 °F 92.2 °F 72.1 °F 63% 29.96 in 10.0 mi SSE 17.3 mph - N/A   Clear
5:58 PM 84.6 °F 90.7 °F 72.3 °F 67% 29.98 in 10.0 mi South 13.8 mph - N/A   Clear
6:12 PM 84.2 °F 90.9 °F 73.4 °F 70% 29.94 in 10.0 mi SSE 18.4 mph - N/A Thunderstorm Thunderstorm
6:16 PM 84.2 °F 90.9 °F 73.4 °F 70% 29.94 in 10.0 mi SSE 17.3 mph - N/A Rain , Thunderstorm Light Thunderstorms and Rain
6:27 PM 84.2 °F 90.9 °F 73.4 °F 70% 29.95 in 10.0 mi SSW 12.7 mph - N/A Rain Light Rain
6:58 PM 80.1 °F 83.8 °F 72.0 °F 76% 29.99 in 10.0 mi SW 11.5 mph - 0.01 in Rain Light Rain
7:41 PM 77.0 °F - 71.6 °F 83% 29.96 in 10.0 mi WSW 12.7 mph - N/A   Clear
7:58 PM 76.5 °F - 70.3 °F 81% 29.98 in 10.0 mi WSW 6.9 mph - 0.01 in   Clear
7:59 PM 77.0 °F - 69.8 °F 78% 29.96 in 10.0 mi WSW 8.1 mph - N/A   Light Drizzle
8:10 PM 77.0 °F - 69.8 °F 78% 29.96 in 10.0 mi WSW 5.8 mph - N/A   Clear
8:58 PM 76.1 °F - 70.0 °F 81% 29.99 in 10.0 mi WSW 8.1 mph - 0.00 in   Clear
9:58 PM 76.5 °F - 68.9 °F 77% 29.99 in 10.0 mi SSW 6.9 mph - N/A   Clear
10:58 PM 77.0 °F - 69.4 °F 77% 30.03 in 10.0 mi SW 6.9 mph - N/A   Clear
11:35 PM 77.0 °F - 69.8 °F 78% 30.02 in 10.0 mi West 8.1 mph - N/A   Light Drizzle
11:49 PM 77.0 °F - 69.8 °F 78% 30.02 in 10.0 mi WSW 4.6 mph - N/A   Clear
11:58 PM 77.2 °F - 70.3 °F 79% 30.04 in 10.0 mi West 3.5 mph - 0.00 in   Clear